When you browse on this site, cookies collect data to enhance your experience and personalize the content and advertising you see.
Visit our Privacy Policy to learn more. By continuing to use the site, you agree to this use of cookies and data.
  • In Hungary
  • List of Countries
  • For 7 days
  • Water Temperature
  • Satellite Maps
  • Weather Map
  • News
  • Weather Widgets
  • user-avatar
    Login

    Hourly Weather Karatu

    Today, 14 December, Friday

    Time Temperature Precipitation Wind Pressure Humidity
    00:00 +20°C° 0 mm 1 mps 634 mmHg 69%
    01:00 +20°C° 0 mm 1 mps 634 mmHg 72%
    02:00 +19°C° 0 mm 1 mps 634 mmHg 73%
    03:00 +19°C° 0 mm 1 mps 634 mmHg 75%
    04:00 +19°C° 0 mm 1 mps 634 mmHg 77%
    05:00 +18°C° 0 mm 1 mps 634 mmHg 80%
    06:00 +19°C° 0 mm 2 mps 635 mmHg 72%
    07:00 +20°C° 0 mm 2 mps 636 mmHg 64%
    08:00 +23°C° 0 mm 2 mps 636 mmHg 56%
    09:00 +25°C° 0 mm 2 mps 636 mmHg 51%
    10:00 +26°C° 0 mm 3 mps 636 mmHg 45%
    11:00 +28°C° 0 mm 3 mps 636 mmHg 40%
    12:00 +28°C° 0 mm 3 mps 636 mmHg 38%
    13:00 +29°C° 0 mm 3 mps 635 mmHg 36%
    14:00 +30°C° 0 mm 3 mps 635 mmHg 35%
    15:00 +29°C° 0.1 mm 3 mps 634 mmHg 37%
    16:00 +28°C° 0.1 mm 3 mps 634 mmHg 39%
    17:00 +27°C° 0.1 mm 3 mps 633 mmHg 41%
    18:00 +26°C° 0 mm 3 mps 634 mmHg 46%
    19:00 +24°C° 0 mm 3 mps 634 mmHg 50%
    20:00 +22°C° 0 mm 3 mps 634 mmHg 55%
    21:00 +21°C° 0.1 mm 3 mps 634 mmHg 59%
    22:00 +21°C° 0.1 mm 3 mps 634 mmHg 62%
    23:00 +20°C° 0.1 mm 3 mps 634 mmHg 66%

    Tomorrow, 15 December, Saturday

    Time Temperature Precipitation Wind Pressure Humidity
    00:00 +19°C° 0 mm 2 mps 634 mmHg 70%
    01:00 +19°C° 0 mm 2 mps 634 mmHg 73%
    02:00 +18°C° 0 mm 2 mps 633 mmHg 77%
    03:00 +18°C° 0 mm 2 mps 633 mmHg 79%
    04:00 +18°C° 0 mm 2 mps 633 mmHg 81%
    05:00 +17°C° 0 mm 2 mps 633 mmHg 83%
    06:00 +19°C° 0 mm 2 mps 634 mmHg 75%
    07:00 +20°C° 0 mm 3 mps 635 mmHg 68%
    08:00 +22°C° 0 mm 3 mps 636 mmHg 61%
    09:00 +24°C° 0 mm 3 mps 636 mmHg 54%
    10:00 +26°C° 0 mm 3 mps 636 mmHg 48%
    11:00 +28°C° 0 mm 3 mps 636 mmHg 42%
    12:00 +28°C° 0.1 mm 3 mps 635 mmHg 40%
    13:00 +29°C° 0.1 mm 3 mps 635 mmHg 38%
    14:00 +29°C° 0.1 mm 3 mps 634 mmHg 36%
    15:00 +29°C° 0 mm 3 mps 634 mmHg 38%
    16:00 +28°C° 0 mm 3 mps 634 mmHg 40%
    17:00 +27°C° 0 mm 3 mps 633 mmHg 42%
    18:00 +26°C° 0.1 mm 3 mps 633 mmHg 47%
    19:00 +24°C° 0.1 mm 2 mps 634 mmHg 52%
    20:00 +23°C° 0.1 mm 2 mps 634 mmHg 58%
    21:00 +21°C° 0.1 mm 2 mps 634 mmHg 61%
    22:00 +21°C° 0.1 mm 3 mps 634 mmHg 64%
    23:00 +20°C° 0.1 mm 3 mps 634 mmHg 68%

    Day after tomorrow, 16 December, Sunday

    Time Temperature Precipitation Wind Pressure Humidity
    00:00 +19°C° 0 mm 3 mps 634 mmHg 70%
    01:00 +19°C° 0 mm 2 mps 633 mmHg 73%
    02:00 +18°C° 0 mm 2 mps 633 mmHg 75%
    03:00 +18°C° 0 mm 2 mps 633 mmHg 77%
    04:00 +18°C° 0 mm 2 mps 633 mmHg 79%
    05:00 +17°C° 0 mm 2 mps 633 mmHg 81%
    06:00 +19°C° 0 mm 2 mps 634 mmHg 73%
    07:00 +20°C° 0 mm 2 mps 635 mmHg 66%
    08:00 +22°C° 0 mm 3 mps 636 mmHg 59%
    09:00 +25°C° 0.1 mm 3 mps 636 mmHg 52%
    10:00 +26°C° 0.1 mm 3 mps 636 mmHg 46%
    11:00 +28°C° 0.1 mm 3 mps 636 mmHg 40%
    12:00 +29°C° 0.3 mm 3 mps 635 mmHg 39%
    13:00 +29°C° 0.3 mm 3 mps 634 mmHg 38%
    14:00 +30°C° 0.3 mm 3 mps 634 mmHg 37%
    15:00 +29°C° 0.1 mm 3 mps 633 mmHg 38%
    16:00 +28°C° 0.1 mm 3 mps 633 mmHg 40%
    17:00 +27°C° 0.1 mm 2 mps 633 mmHg 42%
    18:00 +26°C° 0.1 mm 2 mps 633 mmHg 46%
    19:00 +25°C° 0.1 mm 2 mps 634 mmHg 51%
    20:00 +23°C° 0.1 mm 2 mps 634 mmHg 55%
    21:00 +23°C° 0.1 mm 2 mps 634 mmHg 59%
    22:00 +21°C° 0.1 mm 2 mps 634 mmHg 63%
    23:00 +20°C° 0.1 mm 2 mps 634 mmHg 67%

    17 December, Monday

    Time Temperature Precipitation Wind Pressure Humidity
    00:00 +20°C° 0 mm 2 mps 633 mmHg 70%
    01:00 +19°C° 0 mm 2 mps 633 mmHg 74%
    02:00 +19°C° 0 mm 2 mps 632 mmHg 77%
    03:00 +19°C° 0 mm 1 mps 633 mmHg 79%
    04:00 +19°C° 0 mm 1 mps 633 mmHg 81%
    05:00 +18°C° 0 mm 1 mps 633 mmHg 82%
    06:00 +19°C° 0 mm 2 mps 634 mmHg 75%
    07:00 +20°C° 0 mm 2 mps 635 mmHg 68%
    08:00 +23°C° 0 mm 2 mps 636 mmHg 61%
    09:00 +25°C° 0.1 mm 2 mps 636 mmHg 56%
    10:00 +26°C° 0.1 mm 2 mps 636 mmHg 51%
    11:00 +28°C° 0.1 mm 2 mps 635 mmHg 45%
    12:00 +28°C° 0.2 mm 2 mps 635 mmHg 44%
    13:00 +28°C° 0.2 mm 2 mps 634 mmHg 44%
    14:00 +28°C° 0.2 mm 2 mps 633 mmHg 43%
    15:00 +27°C° 0.3 mm 2 mps 633 mmHg 45%
    16:00 +27°C° 0.3 mm 2 mps 633 mmHg 47%
    17:00 +26°C° 0.3 mm 2 mps 633 mmHg 50%
    18:00 +25°C° 0.5 mm 2 mps 633 mmHg 54%
    19:00 +24°C° 0.5 mm 1 mps 634 mmHg 59%
    20:00 +23°C° 0.5 mm 1 mps 634 mmHg 63%
    21:00 +22°C° 0.4 mm 1 mps 634 mmHg 65%
    22:00 +22°C° 0.4 mm 1 mps 634 mmHg 67%
    23:00 +21°C° 0.4 mm 1 mps 634 mmHg 69%

    18 December, Tuesday

    Time Temperature Precipitation Wind Pressure Humidity
    00:00 +21°C° 0.2 mm 1 mps 633 mmHg 71%
    01:00 +20°C° 0.2 mm 1 mps 633 mmHg 73%
    02:00 +20°C° 0.2 mm 1 mps 632 mmHg 75%
    03:00 +20°C° 0.2 mm 1 mps 633 mmHg 77%
    04:00 +19°C° 0.2 mm 1 mps 633 mmHg 78%
    05:00 +19°C° 0.2 mm 1 mps 633 mmHg 80%
    06:00 +20°C° 0.2 mm 1 mps 634 mmHg 75%
    07:00 +21°C° 0.2 mm 1 mps 635 mmHg 70%
    08:00 +22°C° 0.2 mm 1 mps 636 mmHg 66%
    09:00 +23°C° 0.1 mm 1 mps 635 mmHg 62%
    10:00 +24°C° 0.1 mm 1 mps 635 mmHg 58%
    11:00 +25°C° 0.1 mm 2 mps 635 mmHg 54%
    12:00 +26°C° 0 mm 1 mps 634 mmHg 50%
    13:00 +27°C° 0 mm 1 mps 634 mmHg 46%
    14:00 +28°C° 0 mm 1 mps 633 mmHg 42%
    15:00 +27°C° 0.1 mm 1 mps 633 mmHg 44%
    16:00 +27°C° 0.1 mm 1 mps 633 mmHg 46%
    17:00 +26°C° 0.1 mm 1 mps 633 mmHg 48%
    18:00 +25°C° 0.1 mm 1 mps 633 mmHg 52%
    19:00 +24°C° 0.1 mm 1 mps 633 mmHg 56%
    20:00 +22°C° 0.1 mm 1 mps 633 mmHg 60%
    21:00 +22°C° 0.2 mm 1 mps 633 mmHg 61%
    22:00 +22°C° 0.2 mm 1 mps 633 mmHg 63%
    23:00 +22°C° 0.2 mm 1 mps 633 mmHg 64%

    19 December, Wednesday

    Time Temperature Precipitation Wind Pressure Humidity
    00:00 +21°C° 0.1 mm 1 mps 633 mmHg 66%
    01:00 +20°C° 0.1 mm 1 mps 633 mmHg 69%
    02:00 +20°C° 0.1 mm 1 mps 632 mmHg 71%
    03:00 +20°C° 0.1 mm 1 mps 632 mmHg 73%
    04:00 +19°C° 0.1 mm 1 mps 633 mmHg 74%
    05:00 +19°C° 0.1 mm 1 mps 633 mmHg 75%
    06:00 +20°C° 0.2 mm 1 mps 634 mmHg 71%
    07:00 +21°C° 0.2 mm 2 mps 635 mmHg 66%
    08:00 +23°C° 0.2 mm 2 mps 635 mmHg 61%
    09:00 +24°C° 0.1 mm 2 mps 635 mmHg 56%
    10:00 +25°C° 0.1 mm 2 mps 635 mmHg 51%
    11:00 +27°C° 0.1 mm 2 mps 635 mmHg 46%
    12:00 +27°C° 0.2 mm 2 mps 634 mmHg 45%
    13:00 +28°C° 0.2 mm 2 mps 634 mmHg 43%
    14:00 +28°C° 0.2 mm 2 mps 633 mmHg 42%
    15:00 +27°C° 0.2 mm 2 mps 633 mmHg 45%
    16:00 +27°C° 0.2 mm 2 mps 633 mmHg 47%
    17:00 +26°C° 0.2 mm 2 mps 633 mmHg 50%
    18:00 +25°C° 0.4 mm 1 mps 633 mmHg 53%
    19:00 +24°C° 0.4 mm 1 mps 633 mmHg 57%
    20:00 +23°C° 0.4 mm 1 mps 633 mmHg 61%
    21:00 +22°C° 0.2 mm 1 mps 633 mmHg 63%
    22:00 +22°C° 0.2 mm 1 mps 633 mmHg 64%
    23:00 +21°C° 0.2 mm 1 mps 633 mmHg 66%
    Show more